Location: Krasnoyarskiy Pitomnik
(51.1333°N, 71.6167°E)
Time: 14:00:42
(UTC+00:00)

Tiros 1 despin weight - Pass Details

Date: 13 April 2024
Orbit: 578 x 621 km, 48.2° (Epoch: 21 May)

Event Time Altitude Azimuth Distance (km) Brightness Sun altitude
Rises 17:05:18 0° 275° (W) 2,901 ? -23.4°
Reaches altitude 10° 17:08:57 10° 245° (WSW) 1,991 ? -23.7°
Enters shadow 17:10:02 12° 232° (SW) 1,870 ? -23.8°
